This is the latest recevied weather packets stored in our database for station/object LRBV. If no packets are shown the sender has not sent any weather packets the latest 10 day(s).
| Time | Temp. | Humidity | Pressure | Rain* | Wind** | Luminosity | Snow |
|---|---|---|---|---|---|---|---|
| 1777646968 | 11.11° C | 32% | 1022 hPa | - | - | - | - |
| 1777646113 | 11.11° C | 32% | 1022 hPa | - | - | - | - |
| 1777645128 | 11.11° C | 30% | 1023 hPa | - | - | - | - |
| 1777644230 | 11.11° C | 30% | 1023 hPa | - | - | - | - |
| 1777643331 | 11.11° C | 28% | 1023 hPa | - | - | - | - |
| 1777642431 | 11.11° C | 28% | 1023 hPa | - | - | - | - |
| 1777641531 | 11.11° C | 35% | 1023 hPa | - | - | - | - |
| 1777640630 | 11.11° C | 35% | 1023 hPa | - | - | - | - |
| 1777639730 | 11.11° C | 35% | 1023 hPa | - | - | - | - |
| 1777638831 | 11.11° C | 35% | 1023 hPa | - | - | - | - |
| 1777637946 | 10° C | 35% | 1023 hPa | - | - | - | - |
| 1777637032 | 10° C | 35% | 1023 hPa | - | - | - | - |
| 1777636131 | 8.89° C | 34% | 1024 hPa | - | - | - | - |
| 1777635231 | 8.89° C | 34% | 1024 hPa | - | - | - | - |
| 1777634330 | 10° C | 35% | 1024 hPa | - | - | - | - |
| 1777633431 | 10° C | 35% | 1024 hPa | - | - | - | - |
| 1777632531 | 8.89° C | 37% | 1024 hPa | - | - | - | - |
| 1777631630 | 8.89° C | 37% | 1024 hPa | - | - | - | - |
| 1777630731 | 7.78° C | 43% | 1024 hPa | - | - | - | - |
| 1777629831 | 7.78° C | 43% | 1024 hPa | - | - | - | - |
| 1777628930 | 8.89° C | 40% | 1024 hPa | - | - | - | - |
| 1777628030 | 8.89° C | 40% | 1024 hPa | - | - | - | - |
| 1777627131 | 7.78° C | 37% | 1025 hPa | - | - | - | - |
| 1777626230 | 7.78° C | 37% | 1025 hPa | - | - | - | - |
| 1777625331 | 7.22° C | 39% | 1025 hPa | - | - | - | - |
* Rain since midnight (hover to see other rain measurements)
** Current wind speed in m/s (hover to see current wind gust speed)